Probability
0 0 0 0 0 0 0 0 0 0 0 0 0 0 0 0 0 0 0 0 0 0 0 0 0 0 0 0 0 0 0 0 0 0 0 0 0 0 0 0 0 0 0
0 0 0 0 0 0 0 0 0 0 0 0 0 0 0 0 0 0 0 0 0 0 0 0 0 0 0 0 0 0 0 0 0 0 0 0 0 0 0 0 0 0 0
0 0 0 0 0 0 0 0 0 0 0 0 0 0 0 0 0 0 0 0 0 0 0 0 0 0 0 0 0 0 0 0 0 0 0 0 0 0 0 0 0 0 0
0 0 0 0 0 0 0 0 0 0 0 0 0 0 0 0 0 0 0 0 0 0 0 0 0 0 0 0 0 0 0 0 0 0 0 0 0 0 0 0 0 0 0
0 0 0 0 0 0 0 0 0 0 0 0 0 0 0 0 0 0 0 0 0 0 0 0 0 0 0 0 0 0 0 0 0 0 0 0 0 0 0 0 0 0 0
0 0 0 0 0 0 0 0 0 0 0 0 0 0 0 0 0 0 0 0 0 0 0 0 0 0 0 0 0 0 0 0 0 0 0 0 0 0 0 0 0 0 0
0 0 0 0 0 0 0 0 0 0 0 0 0 0 0 0 0 0 0 0 0 0 0 0 0 0 0 0 0 0 0 0 0 0 0 0 0 0 0 0 0 0 0
0 0 0 0 0 0 0 0 0 0 0 0 0 0 0 0 0 0 0 0 0 0 0 0 0 0 0 0 0 0 0 0 0 0 0 0 0 0 0 0 0 0 0
0 0 0 0 0 0 0 0 0 0 0 0 0 0 0 0 0 0 0 0 0 0 0 0 0 0 0 0 0 0 0 0 0 0 0 0 0 0 0 0 0 0 0
0 0 0 0 0 0 0 0 0 0 0 0 0 0 0 0 0 0 0 0 0 0 0 0 0 0 0 0 0 0 0 0 0 0 0 0 0 0 0 0 0 0 0
0 0 0 0 0 0 0 0 0 0 0 0 0 0 0 0 0 0 0 0 0 0 0 0 0 0 0 0 0 0 0 0 0 0 0 0 0 0 0 0 0 0 0
0 0 0 0 0 0 0 0 0 0 0 0 0 0 0 0 0 0 0 0 0 0 0 0 0 0 0 0 0 0 0 0 0 0 0 0 0 0 0 0 0 0 0
0 0 0 0 0 0 0 0 0 0 0 0 0 0 0 0 0 0 0 0 0 0 0 0 0 0 0 0 0 0 0 0 0 0 0 0 0 0 0 0 0 0 0
0 0 0 0 0 0 0 0 0 0 0 0 0 0 0 0 0 0 0 0 0 0 0 0 0 0 0 0 0 0 0 0 0 0 0 0 0 0 0 0 0 0 0
0 0 0 0 0 0 0 0 0 0 0 0 0 0 0 0 0 0 0 0 0 0 0 0 0 0 0 0 0 0 0 0 0 0 0 0 0 0 0 0 0 0 0
0 0 0 0 0 0 0 0 0 0 0 0 0 0 0 0 0 0 0 0 0 0 0 0 0 0 0 0 0 0 0 0 0 0 0 0 0 0 0 0 0 0 0
0 0 0 0 0 0 0 0 0 0 0 0 0 0 0 0 0 0 0 0 0 0 0 0 0 0 0 0 0 0 0 0 0 0 0 0 0 0 0 0 0 0 0
0 0 0 0 0 0 0 0 0 0 0 0 0 0 0 0 0 0 0 0 0 0 0 0 0 0 0 0 0 0 0 0 0 0 0 0 0 0 0 0 0 0 0
0 0 0 0 0 0 0 3 0 0 0 0 0 0 0 0 0 0 0 0 0 0 0 0 0 0 0 0 0 0 0 0 0 0 0 0 0 0 0 0 0 0 0
0 0 0 0 0 3 3 3 0 0 0 0 0 0 0 0 0 0 0 0 0 0 0 0 0 0 0 0 0 0 0 0 0 0 0 0 0 0 0 0 0 0 0
0 0 0 0 0 0 0 3 0 0 0 0 0 0 0 0 0 0 0 0 0 0 0 0 0 0 0 0 0 0 0 0 0 0 0 0 0 0 0 0 0 0 0
0 0 0 0 0 0 0 0 3 0 0 0 0 0 0 0 0 0 0 0 0 0 0 0 0 0 0 0 0 0 0 0 0 0 0 0 0 0 0 0 0 0 0
0 0 0 0 0 0 0 0 0 0 0 0 0 0 0 0 0 0 0 0 0 0 0 0 0 0 0 0 0 0 0 0 0 0 0 0 0 0 0 0 0 0 0
0 0 0 0 0 0 0 0 0 0 0 0 0 0 0 0 0 0 0 0 0 0 0 0 0 0 0 0 0 0 0 0 0 0 0 0 0 0 0 0 0 0 0
0 0 0 0 0 0 0 0 0 0 0 0 0 0 0 0 0 0 0 0 0 0 0 0 0 0 0 0 0 0 0 0 0 0 0 0 0 0 0 0 0 0 0
0 0 0 0 0 0 0 0 0 0 0 0 0 0 0 0 0 0 0 0 0 0 0 0 0 0 0 0 0 0 0 0 0 0 0 0 0 0 0 0 0 0 0
Height
5852 5850 5850 5849 5848 5847 5846 5845 5845 5844 5843 5842 5842 5841 5840 5839 5838 5837 5837 5837 5836 5836 5836 5835 5835 5835 5834 5834 5834 5834 5834 5834 5834 5834 5833 5833 5832 5832 5832 5831 5832 5832 5832
5850 5849 5848 5847 5846 5845 5844 5844 5843 5842 5842 5841 5840 5839 5838 5837 5837 5836 5835 5835 5835 5834 5834 5834 5834 5833 5833 5832 5832 5832 5832 5832 5832 5832 5831 5831 5831 5829 5829 5829 5829 5829 5829
5848 5848 5847 5846 5845 5844 5843 5842 5841 5841 5840 5839 5838 5837 5836 5836 5835 5835 5834 5834 5833 5833 5833 5832 5832 5832 5831 5831 5831 5830 5830 5830 5830 5829 5829 5828 5828 5827 5827 5826 5826 5826 5826
5846 5846 5845 5844 5843 5842 5842 5841 5840 5839 5838 5837 5837 5836 5835 5834 5834 5833 5833 5832 5832 5832 5831 5831 5831 5830 5830 5829 5829 5829 5828 5828 5828 5827 5827 5826 5826 5825 5824 5824 5824 5824 5824
5844 5844 5843 5842 5841 5841 5840 5839 5838 5838 5837 5836 5835 5834 5834 5833 5832 5832 5831 5831 5831 5831 5830 5830 5829 5829 5828 5828 5827 5827 5827 5826 5826 5825 5825 5824 5823 5823 5822 5822 5822 5822 5822
5842 5842 5841 5840 5839 5839 5838 5838 5837 5836 5835 5834 5834 5833 5832 5831 5831 5831 5830 5830 5830 5829 5829 5828 5828 5828 5827 5827 5826 5825 5825 5824 5824 5823 5823 5822 5821 5821 5820 5820 5820 5819 5820
5840 5839 5839 5838 5837 5837 5836 5836 5835 5834 5833 5833 5832 5831 5831 5830 5830 5829 5829 5828 5828 5828 5827 5827 5827 5826 5826 5825 5824 5824 5823 5823 5822 5821 5821 5820 5819 5819 5819 5818 5818 5818 5818
5838 5837 5836 5835 5835 5834 5834 5833 5833 5832 5832 5831 5830 5829 5829 5828 5828 5828 5827 5827 5826 5826 5826 5825 5825 5824 5824 5823 5823 5822 5821 5821 5820 5820 5819 5818 5818 5817 5817 5817 5816 5816 5816
5835 5834 5834 5833 5832 5832 5831 5831 5830 5830 5829 5829 5828 5827 5827 5826 5826 5826 5825 5825 5825 5824 5824 5823 5823 5823 5822 5821 5821 5820 5819 5819 5819 5818 5817 5817 5816 5816 5815 5815 5815 5815 5814
5832 5831 5831 5830 5830 5829 5829 5828 5828 5827 5826 5826 5826 5825 5825 5824 5824 5823 5823 5823 5822 5822 5821 5821 5821 5820 5820 5819 5819 5818 5817 5817 5817 5816 5815 5815 5814 5814 5813 5813 5812 5812 5811
5829 5828 5828 5827 5827 5826 5826 5826 5825 5825 5824 5824 5823 5823 5822 5822 5822 5821 5821 5821 5820 5819 5819 5819 5818 5818 5818 5817 5816 5816 5816 5815 5815 5814 5814 5813 5813 5812 5811 5811 5810 5809 5809
5825 5825 5824 5824 5824 5823 5823 5823 5822 5822 5821 5821 5820 5820 5820 5820 5819 5819 5819 5818 5818 5817 5817 5816 5816 5816 5815 5815 5814 5814 5813 5813 5812 5812 5812 5811 5810 5810 5809 5808 5808 5807 5806
5821 5821 5821 5820 5820 5820 5820 5819 5819 5819 5818 5818 5817 5817 5817 5817 5816 5816 5816 5816 5815 5815 5814 5814 5813 5813 5813 5812 5812 5811 5811 5810 5810 5810 5809 5809 5808 5807 5807 5806 5805 5804 5803
5816 5816 5816 5816 5816 5816 5816 5815 5815 5815 5815 5814 5814 5814 5813 5813 5813 5813 5813 5812 5812 5812 5811 5811 5811 5810 5810 5809 5809 5809 5808 5808 5807 5807 5806 5806 5805 5805 5804 5803 5802 5801 5800
5811 5812 5812 5812 5812 5811 5811 5811 5811 5811 5811 5810 5810 5810 5810 5810 5809 5809 5809 5809 5809 5808 5808 5808 5807 5807 5807 5806 5806 5805 5805 5804 5804 5804 5803 5803 5802 5802 5801 5800 5799 5798 5797
5806 5806 5807 5807 5807 5807 5807 5807 5807 5806 5806 5806 5806 5806 5806 5806 5805 5805 5805 5805 5805 5805 5804 5804 5804 5804 5803 5803 5802 5802 5801 5801 5801 5800 5800 5799 5798 5798 5797 5797 5796 5795 5794
5800 5800 5801 5801 5801 5802 5802 5802 5802 5802 5801 5802 5802 5802 5802 5801 5801 5801 5801 5801 5801 5801 5800 5800 5800 5799 5799 5799 5799 5798 5798 5797 5796 5796 5795 5795 5794 5794 5793 5793 5792 5791 5790
5794 5794 5795 5795 5796 5796 5796 5796 5796 5796 5796 5796 5797 5797 5797 5797 5797 5796 5796 5796 5796 5796 5796 5796 5795 5795 5795 5795 5794 5794 5794 5793 5792 5792 5791 5791 5790 5789 5789 5788 5788 5786 5785
5787 5788 5788 5789 5790 5790 5790 5790 5790 5790 5790 5791 5791 5791 5791 5792 5792 5792 5792 5791 5791 5791 5791 5791 5791 5791 5790 5790 5790 5789 5789 5789 5788 5788 5787 5786 5785 5785 5784 5783 5783 5781 5780
5780 5780 5781 5782 5783 5783 5783 5784 5784 5784 5784 5785 5785 5785 5786 5786 5786 5786 5786 5786 5786 5786 5786 5786 5786 5785 5785 5785 5784 5784 5784 5784 5783 5783 5782 5781 5780 5779 5778 5778 5777 5776 5774
5773 5773 5774 5774 5775 5775 5776 5777 5777 5778 5778 5778 5778 5779 5779 5779 5780 5780 5780 5780 5780 5780 5780 5780 5780 5779 5779 5779 5779 5778 5778 5778 5777 5777 5776 5775 5775 5774 5773 5771 5770 5769 5768
5765 5765 5766 5766 5767 5768 5769 5770 5770 5770 5770 5771 5771 5771 5772 5772 5773 5773 5773 5774 5774 5774 5774 5774 5773 5773 5773 5773 5772 5772 5772 5771 5771 5770 5770 5769 5768 5767 5766 5765 5764 5762 5761
5757 5758 5758 5759 5759 5759 5760 5761 5762 5762 5762 5763 5763 5764 5764 5765 5765 5766 5766 5767 5767 5767 5767 5767 5767 5766 5766 5766 5765 5765 5765 5764 5764 5763 5762 5762 5761 5760 5758 5757 5756 5755 5753
5749 5749 5750 5750 5751 5751 5751 5752 5753 5753 5754 5754 5755 5756 5756 5756 5757 5758 5758 5759 5759 5759 5760 5760 5759 5759 5759 5759 5758 5758 5757 5757 5756 5755 5754 5754 5753 5752 5751 5749 5748 5747 5745
5740 5741 5741 5742 5742 5742 5743 5743 5744 5744 5745 5746 5747 5747 5748 5748 5749 5749 5750 5751 5751 5751 5751 5752 5752 5751 5751 5751 5750 5750 5749 5749 5748 5747 5746 5745 5744 5743 5742 5741 5739 5737 5736
5732 5732 5732 5733 5733 5733 5734 5734 5735 5735 5736 5737 5738 5738 5739 5739 5740 5740 5741 5742 5742 5742 5742 5743 5743 5743 5743 5742 5742 5741 5741 5740 5739 5738 5737 5736 5735 5734 5732 5731 5729 5727 5725
Wind_Speed
7 7 7 8 8 8 8 7 7 8 8 8 8 8 8 8 8 7 7 7 7 6 6 6 6 6 6 7 7 7 7 7 8 8 8 9 10 10 11 11 11 11 12
7 7 7 8 8 8 7 7 7 7 7 7 8 8 8 7 7 7 7 6 6 6 6 7 7 7 6 6 7 7 7 7 8 8 9 9 9 9 10 10 11 12 12
7 7 8 8 7 8 7 7 6 7 7 7 7 7 7 7 6 6 6 6 6 6 6 6 6 6 6 6 6 6 7 7 8 8 9 9 9 9 9 10 11 11 11
7 8 8 8 7 7 7 6 7 7 7 7 7 7 7 6 6 6 6 6 6 5 6 6 6 6 6 6 6 6 7 8 8 8 8 8 9 9 9 10 10 10 11
8 8 8 8 7 7 7 7 7 7 7 7 7 7 7 6 6 5 5 5 5 5 5 5 6 6 5 5 6 6 7 8 8 8 8 8 9 9 8 8 9 10 11
8 8 8 8 8 8 7 7 7 7 7 7 7 7 7 6 6 6 6 6 5 5 5 5 5 5 5 6 6 7 7 8 8 8 9 8 8 8 7 7 8 9 9
9 8 8 9 8 8 7 7 7 7 7 7 7 8 7 7 7 7 6 6 6 6 5 5 6 6 6 6 7 7 7 7 8 7 7 8 8 8 7 7 8 9 9
10 10 10 10 9 8 8 8 8 8 8 8 8 8 7 7 7 7 7 7 7 7 6 7 7 7 7 7 7 7 7 8 8 8 7 7 7 8 8 8 8 8 9
11 11 11 10 9 9 8 8 9 8 8 8 9 8 7 7 7 7 8 8 8 8 7 8 8 8 8 8 7 8 8 8 8 8 8 8 8 8 8 8 8 9 9
12 12 12 11 10 9 9 9 9 8 8 8 8 8 7 8 7 7 7 7 8 8 8 8 8 8 8 8 8 8 8 8 8 8 8 8 8 8 7 8 9 9 9
13 13 13 12 11 10 10 10 9 9 9 8 8 8 8 8 8 8 8 8 8 9 9 9 9 8 8 9 9 8 8 8 8 8 8 8 8 8 8 9 10 10 11
15 14 13 13 12 11 11 10 10 10 10 10 10 10 10 10 10 9 9 9 9 9 9 9 9 9 9 9 9 9 9 9 9 8 8 9 9 9 10 11 11 12 12
15 15 14 14 13 12 12 12 12 12 11 11 11 11 11 11 11 11 11 11 11 10 10 9 9 10 10 10 10 10 10 10 10 10 9 10 10 10 11 12 12 13 13
17 17 16 15 15 14 13 13 13 13 12 12 12 12 12 12 12 12 12 12 12 11 11 11 10 10 11 11 11 12 12 12 12 11 11 11 12 12 12 12 12 13 14
18 17 17 16 15 15 14 14 14 14 13 13 13 13 13 13 13 13 13 13 12 12 12 12 11 11 12 12 13 13 13 13 13 13 13 13 13 13 13 13 14 14 14
19 18 17 16 16 16 16 16 15 15 15 14 14 14 14 14 15 14 14 14 13 13 13 13 12 12 12 13 13 13 14 13 14 14 14 14 14 14 14 15 15 15 15
21 20 19 18 18 17 17 18 17 17 16 16 15 15 15 15 16 15 15 15 14 14 14 13 13 14 13 13 14 14 14 14 14 14 14 15 15 15 15 16 16 16 17
22 20 20 20 20 19 18 18 18 18 18 17 17 17 16 16 16 16 15 15 15 15 14 14 14 15 15 15 15 15 15 15 16 16 16 16 17 17 17 17 17 18 19
23 23 22 21 21 21 20 20 20 20 20 19 19 18 18 18 17 17 17 16 16 16 16 16 16 17 17 17 16 16 16 17 17 17 17 17 18 18 18 19 19 20 20
23 23 23 23 23 22 21 22 21 21 21 21 21 20 20 20 19 18 18 18 17 17 17 18 18 19 19 19 19 19 18 18 19 19 19 19 20 21 21 21 21 22 22
24 24 24 24 24 23 23 23 22 23 23 23 23 23 22 22 21 21 20 19 19 19 19 19 20 20 20 21 21 21 21 21 21 21 21 22 22 22 23 23 23 23 23
25 25 24 24 25 25 25 25 25 25 24 24 24 25 24 24 24 24 23 22 22 22 21 21 21 21 22 22 23 23 23 23 23 23 23 24 24 24 24 25 25 25 25
25 25 25 25 25 25 26 26 26 26 25 24 24 25 26 25 25 25 24 24 24 23 23 23 23 23 23 23 23 24 25 25 25 26 26 26 27 27 27 27 27 27 28
25 25 26 26 26 26 27 27 27 27 26 26 25 26 26 26 26 26 25 25 25 25 24 24 24 24 24 25 25 26 26 26 27 27 28 29 29 29 29 29 29 29 30
26 26 26 26 27 27 27 27 28 28 28 27 27 27 27 27 27 27 27 27 27 27 26 26 25 25 25 26 26 27 27 28 28 29 29 30 30 30 31 31 31 31 32
27 26 26 27 27 27 28 28 28 28 28 28 28 28 28 28 28 28 28 28 28 28 28 27 27 27 27 28 28 29 29 29 30 30 30 31 32 32 32 32 33 34 34
Wind_Direction
298 304 309 314 314 310 308 307 305 308 308 307 307 310 311 305 298 296 295 291 290 287 286 285 290 287 285 284 281 276 276 278 279 280 278 281 278 271 269 270 266 263 264
296 301 306 314 316 314 310 308 308 309 310 308 309 312 312 307 296 293 296 295 292 289 293 286 287 285 283 283 280 275 277 278 282 283 281 282 279 275 271 269 267 264 265
294 301 304 306 310 313 310 306 305 306 312 311 311 314 313 307 295 292 293 294 296 292 294 297 297 290 278 276 279 278 278 281 286 285 283 283 282 279 273 270 269 266 266
294 298 300 302 303 308 308 304 304 305 309 315 317 318 316 308 297 296 294 294 297 296 296 293 299 297 287 282 281 278 278 282 285 289 291 285 284 280 277 271 268 269 269
294 296 295 296 298 301 301 301 303 304 309 310 313 313 310 306 298 293 289 292 298 298 301 299 304 304 291 284 284 281 285 288 286 288 289 289 289 287 284 274 273 271 270
292 293 293 293 293 294 296 298 301 302 302 304 307 307 304 301 297 292 288 292 298 302 303 302 302 301 296 285 286 286 286 290 285 282 284 283 287 286 284 283 280 276 274
290 290 290 291 289 288 290 293 295 294 293 296 299 300 300 297 291 289 287 292 295 296 299 301 300 297 291 289 290 288 288 288 284 281 280 279 282 283 282 289 289 284 280
288 289 290 290 287 282 283 290 294 291 288 291 294 296 295 293 286 286 285 291 292 292 292 291 292 293 292 293 290 287 286 288 285 284 285 281 280 279 281 287 288 286 281
287 287 286 286 283 278 277 284 291 291 286 287 290 287 286 287 287 286 285 287 289 290 289 286 288 289 288 290 290 287 286 285 285 286 287 285 281 279 277 280 284 289 290
283 282 281 281 280 276 273 277 283 287 286 286 288 287 287 285 287 288 287 285 287 290 290 284 287 289 286 286 287 285 287 285 287 290 291 288 282 281 276 279 284 288 292
278 276 277 278 279 276 274 275 276 280 283 282 281 281 284 285 284 286 286 286 288 289 286 280 282 286 288 288 286 287 282 281 283 286 290 289 289 288 286 288 292 292 295
274 272 272 274 275 272 270 272 275 277 280 280 278 279 279 282 282 279 282 286 287 289 284 280 279 280 283 286 286 287 285 282 277 279 284 289 291 294 294 295 297 299 301
271 271 271 275 274 272 269 270 273 274 276 278 277 277 278 280 278 277 280 282 283 283 282 279 279 280 280 281 282 282 282 278 275 278 282 288 291 292 293 295 296 297 299
268 268 268 270 271 271 270 269 269 271 274 275 276 276 277 280 278 276 277 279 282 281 280 279 279 280 281 282 282 281 282 279 277 276 278 282 286 290 290 294 295 297 299
269 266 264 266 269 270 270 268 267 267 271 271 271 271 272 274 274 274 274 276 278 278 277 276 277 278 281 283 283 281 281 280 279 278 278 280 281 284 287 292 297 297 298
269 266 263 263 266 269 269 268 266 264 265 264 265 267 268 270 272 272 271 274 275 274 274 274 274 276 280 281 282 280 280 280 279 278 278 280 282 283 286 289 292 295 297
264 264 262 261 264 267 267 267 267 265 262 261 262 265 266 269 271 270 271 273 273 272 271 272 274 273 274 275 278 279 280 282 282 281 280 280 281 283 285 287 289 291 293
263 263 262 262 264 265 265 266 266 266 262 260 261 262 264 269 270 270 271 271 271 271 271 273 273 273 273 273 275 276 277 279 281 282 283 284 283 284 286 287 288 290 292
260 262 261 260 261 263 264 265 265 266 264 263 263 262 263 265 268 271 271 270 269 270 270 271 274 274 273 271 272 273 276 277 278 280 282 285 285 286 287 287 288 289 290
259 260 260 261 261 262 264 266 266 266 265 264 263 263 263 263 267 271 270 267 266 267 268 269 271 273 273 272 271 271 274 277 278 279 280 281 283 285 286 286 288 288 287
261 261 261 261 261 263 265 265 267 267 266 264 264 264 263 264 266 268 269 269 268 268 270 270 270 272 273 273 272 271 273 276 278 279 279 279 281 283 285 286 287 288 288
263 263 263 263 262 263 265 265 266 266 267 266 264 263 262 264 266 268 269 269 270 268 269 270 271 272 273 274 273 273 273 274 276 278 279 281 281 281 282 283 284 285 287
266 265 266 266 265 265 265 265 265 266 267 266 265 264 264 264 266 268 269 269 269 269 269 270 271 273 274 274 274 274 274 275 276 277 279 281 282 281 281 282 283 285 286
267 266 266 266 267 267 267 266 266 266 265 265 265 265 266 265 266 266 268 270 270 271 270 272 272 273 273 274 273 273 274 275 276 277 278 279 280 282 282 283 283 284 285
267 267 266 267 268 268 268 267 267 265 264 264 265 265 266 266 266 267 268 270 271 272 270 272 272 272 272 274 275 274 275 276 278 278 278 279 280 281 282 283 283 284 285
267 268 268 268 268 268 267 266 267 265 264 264 265 266 267 267 267 267 268 269 269 270 270 271 271 271 271 273 275 276 276 276 277 279 280 280 280 280 281 282 283 284 285